Location: Beverley
(50.2667°N, 107.9667°W)
Time: 13:25:40
(UTC+00:00)

XW-2A - Pass Details

Date: 06 July 2022
Orbit: 395 x 405 km, 97.2° (Epoch: 15 August)

Event Time Altitude Azimuth Distance (km) Brightness Sun altitude
Exits shadow 04:35:43 - 192° (SSW) 1,957 ? -8.8°
Reaches altitude 10° 04:37:01 10° 201° (SSW) 1,439 ? -9.0°
Maximum altitude 04:39:45 29° 263° (W) 770 ? -9.2°
Drops below altitude 10° 04:42:30 10° 326° (NW) 1,453 ? -9.5°
Sets 04:44:39 0° 338° (NNW) 2,318 ? -9.7°
